Location: Observatorio del Centro Ecologico de Sonora
(29.0667°N, 110.9333°W)
Time: 23:24:22
(UTC-07:00)

ISS - Visible Passes

Search period start: 01 October 2014 00:00
Search period end: 11 October 2014 00:00
Orbit: 413 x 416 km, 51.6° (Epoch: 01 October)

Date Brightness Start Highest point End Pass type
(mag) Time Alt. Az. Time Alt. Az. Time Alt. Az.
01 Oct -0.2 04:11:17 13° NNE 04:11:25 13° NE 04:12:56 10° ENE visible
01 Oct -3.0 05:45:05 10° NW 05:48:18 49° SW 05:51:30 10° SSE visible
02 Oct -3.2 04:58:03 36° NNW 04:59:14 73° NE 05:02:31 10° SE visible
03 Oct -0.5 04:12:02 18° E 04:12:02 18° E 04:13:07 10° ESE visible
03 Oct -1.3 05:44:58 11° W 05:46:29 13° SW 05:48:09 10° SSW visible
03 Oct -1.9 19:08:16 10° S 19:10:40 23° SE 19:10:40 23° SE visible
04 Oct -1.4 04:59:02 19° S 04:59:02 19° S 05:00:19 10° S visible
04 Oct -1.5 19:55:10 10° WSW 19:57:27 32° W 19:57:27 32° W visible
05 Oct -3.4 19:05:47 10° SW 19:09:06 88° NW 19:11:06 22° NE visible
06 Oct -0.5 19:54:51 10° WNW 19:56:44 14° NW 19:57:27 14° NNW visible
07 Oct -1.1 19:04:33 10° W 19:07:20 25° NW 19:10:08 10° NNE visible
